• în România
  • Lista ţărilor
  • Pe 7 zile
  • Temperatura apei
  • Hartă satelitară
  • Meteo pe hartă
  • Widget-uri
  • user-avatar
    Intrare

    Meteo pe oră la Rogovo

    Astăzi, 20 Septembrie, Joi

    Timp Temperatura Precipitaţii Vânt Presiune Umiditate
    00:00 +16°C° 0 mm 2 m/s 740 mmHg 96%
    01:00 +16°C° 0 mm 2 m/s 740 mmHg 97%
    02:00 +15°C° 0 mm 2 m/s 740 mmHg 98%
    03:00 +15°C° 0 mm 2 m/s 740 mmHg 98%
    04:00 +15°C° 0 mm 2 m/s 740 mmHg 98%
    05:00 +14°C° 0 mm 2 m/s 741 mmHg 98%
    06:00 +15°C° 0 mm 2 m/s 741 mmHg 95%
    07:00 +14°C° 0 mm 3 m/s 741 mmHg 91%
    08:00 +16°C° 0 mm 3 m/s 741 mmHg 87%
    09:00 +18°C° 0 mm 3 m/s 741 mmHg 79%
    10:00 +19°C° 0 mm 3 m/s 742 mmHg 70%
    11:00 +21°C° 0 mm 3 m/s 742 mmHg 62%
    12:00 +21°C° 0 mm 3 m/s 742 mmHg 59%
    13:00 +22°C° 0 mm 3 m/s 742 mmHg 57%
    14:00 +24°C° 0 mm 3 m/s 742 mmHg 54%
    15:00 +22°C° 0 mm 3 m/s 742 mmHg 60%
    16:00 +21°C° 0 mm 2 m/s 742 mmHg 66%
    17:00 +20°C° 0 mm 2 m/s 742 mmHg 72%
    18:00 +18°C° 0 mm 2 m/s 742 mmHg 77%
    19:00 +17°C° 0 mm 2 m/s 742 mmHg 82%
    20:00 +15°C° 0 mm 2 m/s 742 mmHg 87%
    21:00 +15°C° 0 mm 2 m/s 742 mmHg 88%
    22:00 +15°C° 0 mm 2 m/s 742 mmHg 89%
    23:00 +14°C° 0 mm 2 m/s 742 mmHg 90%

    Mâine, 21 Septembrie, Vineri

    Timp Temperatura Precipitaţii Vânt Presiune Umiditate
    00:00 +14°C° 0 mm 2 m/s 743 mmHg 91%
    01:00 +14°C° 0 mm 2 m/s 743 mmHg 91%
    02:00 +14°C° 0 mm 2 m/s 743 mmHg 92%
    03:00 +14°C° 0 mm 2 m/s 743 mmHg 93%
    04:00 +13°C° 0 mm 2 m/s 743 mmHg 95%
    05:00 +13°C° 0 mm 2 m/s 743 mmHg 96%
    06:00 +15°C° 0 mm 2 m/s 743 mmHg 91%
    07:00 +16°C° 0 mm 2 m/s 743 mmHg 87%
    08:00 +17°C° 0 mm 2 m/s 743 mmHg 82%
    09:00 +19°C° 0 mm 3 m/s 743 mmHg 76%
    10:00 +21°C° 0 mm 3 m/s 743 mmHg 70%
    11:00 +24°C° 0 mm 3 m/s 743 mmHg 64%
    12:00 +25°C° 0 mm 3 m/s 743 mmHg 62%
    13:00 +25°C° 0 mm 3 m/s 743 mmHg 60%
    14:00 +26°C° 0 mm 4 m/s 743 mmHg 59%
    15:00 +25°C° 0 mm 3 m/s 742 mmHg 64%
    16:00 +24°C° 0 mm 3 m/s 742 mmHg 69%
    17:00 +23°C° 0 mm 2 m/s 742 mmHg 74%
    18:00 +21°C° 0 mm 2 m/s 742 mmHg 79%
    19:00 +19°C° 0 mm 2 m/s 742 mmHg 84%
    20:00 +18°C° 0 mm 3 m/s 742 mmHg 89%
    21:00 +18°C° 0 mm 3 m/s 741 mmHg 90%
    22:00 +18°C° 0 mm 3 m/s 741 mmHg 91%
    23:00 +17°C° 0 mm 3 m/s 741 mmHg 92%

    Poimâine, 22 Septembrie, Sâmbătă

    Timp Temperatura Precipitaţii Vânt Presiune Umiditate
    00:00 +17°C° 0 mm 3 m/s 741 mmHg 91%
    01:00 +17°C° 0 mm 3 m/s 740 mmHg 89%
    02:00 +17°C° 0 mm 3 m/s 740 mmHg 88%
    03:00 +15°C° 0 mm 4 m/s 739 mmHg 86%
    04:00 +15°C° 0 mm 4 m/s 739 mmHg 85%
    05:00 +15°C° 0 mm 4 m/s 738 mmHg 84%
    06:00 +16°C° 0 mm 5 m/s 738 mmHg 78%
    07:00 +17°C° 0 mm 5 m/s 737 mmHg 72%
    08:00 +19°C° 0 mm 6 m/s 737 mmHg 66%
    09:00 +20°C° 0 mm 6 m/s 737 mmHg 61%
    10:00 +21°C° 0 mm 6 m/s 737 mmHg 56%
    11:00 +23°C° 0 mm 7 m/s 737 mmHg 50%
    12:00 +21°C° 0.2 mm 6 m/s 737 mmHg 57%
    13:00 +20°C° 0.2 mm 5 m/s 737 mmHg 63%
    14:00 +17°C° 0.2 mm 5 m/s 737 mmHg 70%
    15:00 +15°C° 0.2 mm 4 m/s 737 mmHg 75%
    16:00 +13°C° 0.2 mm 3 m/s 737 mmHg 80%
    17:00 +12°C° 0.2 mm 3 m/s 738 mmHg 85%
    18:00 +11°C° 0.5 mm 3 m/s 738 mmHg 86%
    19:00 +11°C° 0.5 mm 3 m/s 738 mmHg 88%
    20:00 +10°C° 0.5 mm 3 m/s 738 mmHg 89%
    21:00 +10°C° 0.8 mm 3 m/s 738 mmHg 90%
    22:00 +10°C° 0.8 mm 3 m/s 739 mmHg 92%
    23:00 +10°C° 0.8 mm 3 m/s 739 mmHg 93%

    23 Septembrie, Duminică

    Timp Temperatura Precipitaţii Vânt Presiune Umiditate
    00:00 +9°C° 0.3 mm 2 m/s 738 mmHg 94%
    01:00 +9°C° 0.3 mm 2 m/s 738 mmHg 94%
    02:00 +9°C° 0.3 mm 2 m/s 738 mmHg 95%
    03:00 +9°C° 0.1 mm 2 m/s 738 mmHg 95%
    04:00 +9°C° 0.1 mm 2 m/s 738 mmHg 96%
    05:00 +8°C° 0.1 mm 2 m/s 737 mmHg 97%
    06:00 +9°C° 0 mm 2 m/s 737 mmHg 95%
    07:00 +9°C° 0 mm 2 m/s 737 mmHg 94%
    08:00 +9°C° 0 mm 2 m/s 737 mmHg 92%
    09:00 +10°C° 0 mm 3 m/s 736 mmHg 85%
    10:00 +11°C° 0 mm 3 m/s 736 mmHg 77%
    11:00 +13°C° 0 mm 4 m/s 736 mmHg 70%
    12:00 +13°C° 0.4 mm 4 m/s 736 mmHg 70%
    13:00 +13°C° 0.4 mm 4 m/s 735 mmHg 69%
    14:00 +13°C° 0.4 mm 5 m/s 735 mmHg 69%
    15:00 +12°C° 0.2 mm 4 m/s 735 mmHg 73%
    16:00 +11°C° 0.2 mm 4 m/s 735 mmHg 77%
    17:00 +10°C° 0.2 mm 3 m/s 735 mmHg 81%
    18:00 +10°C° 0 mm 3 m/s 735 mmHg 83%
    19:00 +9°C° 0 mm 3 m/s 735 mmHg 85%
    20:00 +8°C° 0 mm 3 m/s 735 mmHg 88%
    21:00 +8°C° 0 mm 3 m/s 735 mmHg 89%
    22:00 +7°C° 0 mm 3 m/s 735 mmHg 90%
    23:00 +7°C° 0 mm 3 m/s 735 mmHg 91%

    24 Septembrie, Luni

    Timp Temperatura Precipitaţii Vânt Presiune Umiditate
    00:00 +7°C° 0 mm 3 m/s 735 mmHg 92%
    01:00 +7°C° 0 mm 3 m/s 735 mmHg 93%
    02:00 +7°C° 0 mm 3 m/s 735 mmHg 94%
    03:00 +7°C° 0 mm 2 m/s 734 mmHg 94%
    04:00 +7°C° 0 mm 2 m/s 734 mmHg 94%
    05:00 +7°C° 0 mm 2 m/s 734 mmHg 94%
    06:00 +7°C° 0.2 mm 3 m/s 733 mmHg 92%
    07:00 +7°C° 0.2 mm 3 m/s 732 mmHg 91%
    08:00 +8°C° 0.2 mm 3 m/s 732 mmHg 89%
    09:00 +7°C° 1.5 mm 4 m/s 731 mmHg 90%
    10:00 +7°C° 1.5 mm 4 m/s 730 mmHg 91%
    11:00 +7°C° 1.5 mm 5 m/s 729 mmHg 92%
    12:00 +7°C° 2.2 mm 5 m/s 727 mmHg 92%
    13:00 +7°C° 2.2 mm 5 m/s 726 mmHg 93%
    14:00 +7°C° 2.2 mm 5 m/s 724 mmHg 93%
    15:00 +8°C° 3.4 mm 5 m/s 723 mmHg 94%
    16:00 +8°C° 3.4 mm 5 m/s 722 mmHg 95%
    17:00 +8°C° 3.4 mm 4 m/s 720 mmHg 95%
    18:00 +8°C° 1.9 mm 4 m/s 720 mmHg 94%
    19:00 +10°C° 1.9 mm 4 m/s 719 mmHg 94%
    20:00 +9°C° 1.9 mm 5 m/s 719 mmHg 93%
    21:00 +8°C° 0.9 mm 5 m/s 720 mmHg 93%
    22:00 +7°C° 0.9 mm 6 m/s 720 mmHg 92%
    23:00 +5°C° 0.9 mm 7 m/s 720 mmHg 92%

    25 Septembrie, Marţi

    Timp Temperatura Precipitaţii Vânt Presiune Umiditate
    00:00 +5°C° 0.9 mm 7 m/s 722 mmHg 91%
    01:00 +4°C° 0.9 mm 8 m/s 723 mmHg 90%
    02:00 +4°C° 0.9 mm 8 m/s 724 mmHg 89%
    03:00 +4°C° 1 mm 8 m/s 725 mmHg 88%
    04:00 +2°C° 1 mm 8 m/s 726 mmHg 87%
    05:00 +2°C° 1 mm 9 m/s 727 mmHg 86%
    06:00 +2°C° 0.6 mm 8 m/s 728 mmHg 86%
    07:00 +2°C° 0.6 mm 8 m/s 729 mmHg 86%
    08:00 +2°C° 0.6 mm 8 m/s 730 mmHg 85%
    09:00 +3°C° 0.1 mm 7 m/s 732 mmHg 80%
    10:00 +4°C° 0.1 mm 7 m/s 733 mmHg 76%
    11:00 +4°C° 0.1 mm 7 m/s 734 mmHg 71%
    12:00 +5°C° 0.1 mm 7 m/s 735 mmHg 66%
    13:00 +6°C° 0.1 mm 7 m/s 736 mmHg 60%
    14:00 +7°C° 0.1 mm 6 m/s 736 mmHg 55%
    15:00 +7°C° 0 mm 5 m/s 737 mmHg 59%
    16:00 +6°C° 0 mm 4 m/s 737 mmHg 62%
    17:00 +7°C° 0 mm 3 m/s 738 mmHg 66%
    18:00 +5°C° 0 mm 3 m/s 738 mmHg 71%
    19:00 +4°C° 0 mm 3 m/s 739 mmHg 76%
    20:00 +3°C° 0 mm 3 m/s 740 mmHg 81%
    21:00 +4°C° 0 mm 2 m/s 740 mmHg 85%
    22:00 +4°C° 0 mm 2 m/s 741 mmHg 88%
    23:00 +3°C° 0 mm 2 m/s 741 mmHg 92%
    Arată mai mult